Regional Weather Roundup
Issued by NWS Newport/Morehead, NC

Home | Current Version | Previous Version | Text Only | Print | Product List | Glossary On
Versions: 1 2 3 4 5 6 7 8 9 10 11 12 13 14 15 16 17 18 19 20 21 22 23 24 25 26 27 28 29 30 31 32 33 34 35 36 37 38 39 40 41 42 43 44 45 46 47 48 49 50
000
ASUS42 KMHX 050825
RWRMHX
WEATHER ROUNDUP FOR EASTERN NORTH CAROLINA
NATIONAL WEATHER SERVICE NEWPORT/MOREHEAD CITY NC
400 AM EDT THU MAY 05 2016

NOTE: "FAIR" INDICATES FEW OR NO CLOUDS BELOW 12,000 FEET
WITH NO SIGNIFICANT WEATHER AND/OR OBSTRUCTIONS TO VISIBILITY

NCZ015>017-031-032-045>047-102-103-050900-
NORTH COAST

CITY           SKY/WX    TMP DP  RH WIND       PRES   REMARKS
EDENTON        CLOUDY    56  56 100 N8        29.57F
ELIZABETH CITY FOG       53  53 100 N13       29.57F VSB 3/4
KITTY HAWK     FOG       53  53 100 N8        29.55S VSB 3/4
MANTEO         CLOUDY    53  53 100 NE15      29.56S FOG

$$

NCZ045>047-081-094-103-104-050900-
CENTRAL COAST

CITY           SKY/WX    TMP DP  RH WIND       PRES   REMARKS
FRISCO         MOCLDY    58  56  93 NE8G17    29.52F
SWANQUARTER    NOT AVBL

$$

NCZ095-097-098-100-101-050900-
SOUTHERN COAST

CITY           SKY/WX    TMP DP  RH WIND       PRES   REMARKS
BEAUFORT       CLOUDY    63  61  93 NE8       29.53F
CEDAR ISLAND   NOT AVBL
JACKSONVILLE   CLOUDY    65  62  90 E6        29.51F
PINEY ISLAND   NOT AVBL
WILMINGTON     PTCLDY    61  57  87 NW5       29.52F


$$

NCZ011>013-027>030-043-044-078>080-089-090>093-098-050900-
COASTAL PLAIN

CITY           SKY/WX    TMP DP  RH WIND       PRES   REMARKS
AHOSKIE        CLOUDY    54  52  95 N8        29.58F
CLINTON        PTCLDY    57  57 100 CALM      29.53F
ELIZABETHTOWN  CLEAR     57  55  90 CALM      29.53F
GOLDSBORO      MOCLDY    59  59 100 E5        29.52F
GREENVILLE     CLOUDY    59  59 100 SE3       29.59F
HAVELOCK       CLOUDY    63  61  93 NE9       29.53F
KENANSVILLE    CLOUDY    60  59  97 CALM      29.54F FOG
KINSTON        LGT RAIN  61  61  99 NE6       29.55F
NEW BERN       CLOUDY    61  59  93 E6        29.54F
RICHLANDS      CLOUDY    63  63 100 NE5       29.53F FOG
ROCKY MOUNT    CLOUDY    59  58  96 NE6       29.55F
WASHINGTON     CLOUDY    58  56  94 NE6       29.55F
WHITEVILLE     NOT AVBL

$$

AMZ130-135-150-152-154-156-158-170-250-252-270-ANZ085-086-088-633-658-670-050900-
MARINE OBSERVATIONS

STATION/POSITION TIME  TEMP    WIND        PRES    WAVE   SWELL
                       AIR SEA DIR/SP/G            HT/PER HT/PER
                 (UTC) (F)     (DEG/KT/KT) (MB)    (FT/S) (FT/S)
CHESAPEAKE LIGHT 0800   51      40/ 23/ 24 1001.5
64 E VA BEACH    0750   52 54   10/ 16/ 19 1000.9    4/ 6   2/ 7
DUCK             0800   53 61   20/ 16/ 18 1000.4
2 E DUCK         0711      60                N/A     3/ 5
OREGON INLET     0800   53 63   10/ 13/ 17 1000.1
13E OREGON INLT  0800      58                N/A     4/ 8   3/ 8
HATTERAS CG      0800   60 69   40/  9/ 16  999.2
DIAMOND BUOY     0750   62 70   20/ 17/ 19  999.3    4/ 7   2/ 7
CAPE LOOKOUT     0800   63      40/ 14/ 15  999.1
BEAUFORT LAB     0800   63 68   40/  6/  9  998.8
30 SE NEW RVR IN 0725      72                N/A     4/ 6
27 SE WRIGHTSVLE 0808   69 72   80/ 12/ 17  998.4
5 SE WRIGHTSVLE  0708   66 69  350/ 10/ 14 1000.9
225 S CAPE HAT   0750   72 73  170/ 16/ 19  999.5    6/ 7   2/ 9
41 SE CHARLESTON 0750   70 74  310/ 16/ 19 1001.0    4/ 5   2/ 9

$$




USA.gov is the U.S. government's official web portal to all federal, state and local government web resources and services.